TimeCDT,TemperatureF,Dew PointF,Humidity,Sea Level PressureIn,VisibilityMPH,Wind Direction,Wind SpeedMPH,Gust SpeedMPH,PrecipitationIn,Events,Conditions,WindDirDegrees,DateUTC
12:35 AM,29.8,19.4,65,29.89,10.0,NNW,8.1,-,N/A,,Clear,340,2012-10-31 05:35:00
12:55 AM,29.3,19.4,67,29.89,10.0,NNW,6.9,-,N/A,,Clear,340,2012-10-31 05:55:00
1:15 AM,29.3,19.4,67,29.88,10.0,NNW,8.1,-,N/A,,Clear,340,2012-10-31 06:15:00
1:55 AM,29.3,19.9,68,29.88,10.0,NW,4.6,-,N/A,,Clear,320,2012-10-31 06:55:00
2:15 AM,29.3,19.9,68,29.89,10.0,NNW,8.1,-,N/A,,Clear,330,2012-10-31 07:15:00
2:35 AM,29.3,20.3,69,29.89,10.0,NW,6.9,-,N/A,,Clear,320,2012-10-31 07:35:00
2:55 AM,29.3,20.3,69,29.89,10.0,NW,6.9,-,N/A,,Clear,320,2012-10-31 07:55:00
3:15 AM,29.1,20.7,71,29.89,10.0,NNW,11.5,-,N/A,,Clear,330,2012-10-31 08:15:00
3:35 AM,28.9,20.8,72,29.88,10.0,NW,6.9,-,N/A,,Clear,320,2012-10-31 08:35:00
3:55 AM,28.4,21.0,74,29.89,10.0,NW,9.2,-,N/A,,Clear,320,2012-10-31 08:55:00
4:15 AM,28.4,21.2,74,29.89,10.0,NNW,8.1,-,N/A,,Clear,330,2012-10-31 09:15:00
4:35 AM,28.4,21.4,75,29.88,10.0,NW,6.9,-,N/A,,Clear,320,2012-10-31 09:35:00
4:55 AM,28.2,21.4,76,29.88,10.0,NW,5.8,-,N/A,,Clear,320,2012-10-31 09:55:00
5:15 AM,28.0,21.6,77,29.88,10.0,NNW,6.9,-,N/A,,Clear,330,2012-10-31 10:15:00
5:35 AM,28.2,21.7,77,29.88,10.0,NW,9.2,-,N/A,,Clear,320,2012-10-31 10:35:00
5:55 AM,28.2,21.9,77,29.89,10.0,NNW,9.2,-,N/A,,Clear,330,2012-10-31 10:55:00
6:15 AM,28.0,21.9,78,29.89,10.0,NW,10.4,-,N/A,,Clear,320,2012-10-31 11:15:00
6:35 AM,28.0,22.1,78,29.89,10.0,NNW,9.2,-,N/A,,Clear,330,2012-10-31 11:35:00
6:55 AM,27.9,22.1,79,29.89,10.0,NNW,8.1,16.1,N/A,,Clear,330,2012-10-31 11:55:00
7:15 AM,27.5,22.3,81,29.89,10.0,NNW,10.4,-,N/A,,Clear,330,2012-10-31 12:15:00
7:35 AM,27.7,22.6,81,29.89,10.0,NNW,9.2,-,N/A,,Scattered Clouds,330,2012-10-31 12:35:00
7:55 AM,27.7,23.0,83,29.88,10.0,NW,6.9,-,N/A,,Scattered Clouds,320,2012-10-31 12:55:00
8:15 AM,28.0,23.0,81,29.88,10.0,NW,6.9,-,N/A,,Clear,320,2012-10-31 13:15:00
8:35 AM,28.9,23.0,78,29.89,10.0,NNW,9.2,-,N/A,,Clear,340,2012-10-31 13:35:00
8:55 AM,29.8,23.0,76,29.88,10.0,NNW,8.1,-,N/A,,Clear,330,2012-10-31 13:55:00
9:15 AM,31.1,23.2,72,29.89,10.0,NNW,10.4,17.3,N/A,,Clear,340,2012-10-31 14:15:00
9:55 AM,32.5,23.7,70,29.88,10.0,NW,10.4,-,N/A,,Clear,320,2012-10-31 14:55:00
10:15 AM,33.4,24.1,69,29.88,10.0,NW,10.4,18.4,N/A,,Clear,310,2012-10-31 15:15:00
10:35 AM,34.2,24.3,67,29.88,10.0,NW,10.4,-,N/A,,Clear,320,2012-10-31 15:35:00
10:55 AM,35.6,24.8,65,29.88,10.0,NNW,8.1,-,N/A,,Clear,340,2012-10-31 15:55:00
11:15 AM,36.1,24.6,63,29.88,10.0,NW,10.4,17.3,N/A,,Clear,320,2012-10-31 16:15:00
11:35 AM,37.0,24.6,61,29.88,10.0,NW,9.2,-,N/A,,Clear,310,2012-10-31 16:35:00
11:55 AM,38.3,25.2,59,29.88,10.0,NW,10.4,16.1,N/A,,Clear,320,2012-10-31 16:55:00
12:15 PM,38.7,24.8,58,29.87,10.0,NW,6.9,16.1,N/A,,Clear,310,2012-10-31 17:15:00
12:35 PM,39.6,24.6,55,29.86,10.0,WNW,11.5,-,N/A,,Clear,290,2012-10-31 17:35:00
12:55 PM,40.1,24.3,53,29.86,10.0,WNW,11.5,17.3,N/A,,Clear,300,2012-10-31 17:55:00
1:15 PM,41.0,23.4,50,29.86,10.0,NW,15.0,19.6,N/A,,Clear,310,2012-10-31 18:15:00
1:35 PM,41.9,22.3,46,29.85,10.0,NW,12.7,19.6,N/A,,Clear,310,2012-10-31 18:35:00
1:55 PM,42.3,20.3,42,29.85,10.0,NW,9.2,24.2,N/A,,Clear,310,2012-10-31 18:55:00
2:15 PM,42.6,18.7,38,29.84,10.0,WNW,11.5,20.7,N/A,,Clear,300,2012-10-31 19:15:00
2:35 PM,43.2,18.5,37,29.84,10.0,NW,10.4,16.1,N/A,,Clear,310,2012-10-31 19:35:00
2:55 PM,43.2,18.1,37,29.83,10.0,NNW,10.4,-,N/A,,Clear,330,2012-10-31 19:55:00
3:35 PM,43.9,18.1,36,29.83,10.0,WNW,6.9,-,N/A,,Clear,300,2012-10-31 20:35:00
3:55 PM,43.9,17.8,35,29.83,10.0,WNW,6.9,16.1,N/A,,Clear,300,2012-10-31 20:55:00
4:15 PM,44.1,17.4,34,29.84,10.0,NW,10.4,-,N/A,,Clear,310,2012-10-31 21:15:00
4:55 PM,43.9,14.4,30,29.84,10.0,NW,9.2,-,N/A,,Clear,310,2012-10-31 21:55:00
5:15 PM,43.3,12.9,29,29.84,10.0,NW,6.9,-,N/A,,Clear,310,2012-10-31 22:15:00
5:35 PM,42.6,13.6,31,29.85,10.0,WNW,5.8,-,N/A,,Clear,290,2012-10-31 22:35:00
5:55 PM,41.2,14.7,34,29.85,10.0,WNW,4.6,-,N/A,,Clear,290,2012-10-31 22:55:00
6:15 PM,40.1,14.0,35,29.86,10.0,WNW,3.5,-,N/A,,Clear,290,2012-10-31 23:15:00
6:35 PM,38.8,14.2,37,29.86,10.0,Calm,Calm,-,N/A,,Clear,0,2012-10-31 23:35:00
6:55 PM,37.8,14.7,39,29.86,10.0,West,3.5,-,N/A,,Clear,280,2012-10-31 23:55:00
7:15 PM,37.2,15.3,41,29.86,10.0,WNW,3.5,-,N/A,,Clear,290,2012-11-01 00:15:00
7:35 PM,37.0,14.7,40,29.86,10.0,WNW,4.6,-,N/A,,Clear,290,2012-11-01 00:35:00
7:55 PM,36.1,14.4,41,29.86,10.0,Calm,Calm,-,N/A,,Clear,0,2012-11-01 00:55:00
8:15 PM,35.2,14.0,42,29.86,10.0,Calm,Calm,-,N/A,,Clear,0,2012-11-01 01:15:00
8:35 PM,34.3,14.0,43,29.86,10.0,West,3.5,-,N/A,,Clear,280,2012-11-01 01:35:00
8:55 PM,34.2,13.1,42,29.86,10.0,WNW,3.5,-,N/A,,Clear,290,2012-11-01 01:55:00
9:15 PM,34.3,12.2,40,29.86,10.0,WNW,3.5,-,N/A,,Clear,300,2012-11-01 02:15:00
9:35 PM,33.4,12.4,42,29.86,10.0,Calm,Calm,-,N/A,,Clear,0,2012-11-01 02:35:00
9:55 PM,32.5,11.8,42,29.86,10.0,Calm,Calm,-,N/A,,Clear,0,2012-11-01 02:55:00
10:15 PM,32.0,11.3,42,29.86,10.0,Calm,Calm,-,N/A,,Clear,0,2012-11-01 03:15:00
10:35 PM,32.2,11.3,42,29.86,10.0,Calm,Calm,-,N/A,,Clear,0,2012-11-01 03:35:00
10:55 PM,31.8,12.0,44,29.86,10.0,Calm,Calm,-,N/A,,Clear,0,2012-11-01 03:55:00
11:15 PM,30.9,11.7,45,29.86,10.0,Calm,Calm,-,N/A,,Clear,0,2012-11-01 04:15:00
11:35 PM,27.1,12.4,54,29.86,10.0,Calm,Calm,-,N/A,,Clear,0,2012-11-01 04:35:00
11:55 PM,28.6,12.6,51,29.85,10.0,Calm,Calm,-,N/A,,Scattered Clouds,0,2012-11-01 04:55:00